Temp
10 10 10 10 10 11 10 10 11 11 11 11 10 10 10 10 11 10 9 9 9 9 9 8 8 8 8 8 8 8 8 8 9 9 8 8 8 8 8 8 8 8 8 8 8 8 8 8 8
10 10 10 10 11 11 11 11 11 12 11 11 10 10 10 10 10 10 10 9 9 9 8 8 8 8 8 8 8 8 9 9 8 8 8 8 8 8 8 8 8 8 8 8 8 8 8 8 8
10 10 10 10 11 11 11 11 12 11 11 11 11 10 10 10 10 10 10 9 9 8 8 8 8 8 8 8 8 8 8 8 8 8 8 8 7 8 8 8 8 8 8 8 8 8 8 8 8
10 10 10 10 11 11 11 11 11 11 11 11 10 11 10 10 10 10 10 9 9 8 9 9 9 9 9 8 8 8 8 8 8 7 7 7 7 7 8 8 8 8 8 8 8 8 8 8 8
10 10 10 10 9 11 11 11 11 12 12 11 10 11 11 10 9 9 9 9 9 9 9 9 9 9 8 8 8 8 8 8 8 7 7 7 7 7 7 8 8 8 8 8 8 8 8 8 8
10 9 10 10 10 10 10 11 10 11 11 12 11 11 11 10 9 9 9 9 9 8 9 8 8 8 8 8 8 8 8 8 8 7 7 7 7 7 7 8 8 8 8 8 8 8 8 8 8
9 9 9 9 10 9 9 10 11 11 11 11 11 11 11 10 9 9 9 9 9 9 8 8 8 8 8 8 8 8 8 8 7 7 7 7 7 7 7 7 8 7 8 8 8 8 8 8 8
9 9 9 9 9 10 9 10 10 11 11 11 10 11 11 11 10 9 9 9 9 9 9 8 8 8 8 8 8 8 8 8 8 8 7 7 6 6 7 7 7 7 7 7 7 7 7 8 8
10 9 9 9 9 10 10 10 10 10 10 10 10 10 11 11 10 10 9 9 9 9 9 8 8 8 8 8 8 8 8 8 8 7 7 7 6 6 6 7 7 7 7 7 7 7 7 7 8
10 9 9 9 10 9 10 10 11 11 11 10 10 10 11 11 10 10 9 9 9 9 9 8 8 8 8 8 8 8 8 8 8 8 7 7 7 6 7 7 7 7 7 7 6 7 7 7 7
9 9 9 10 10 9 9 10 10 11 11 11 11 10 10 10 10 10 9 9 9 9 9 8 9 9 8 8 8 8 8 8 8 8 8 7 7 7 7 7 7 7 7 6 6 7 7 7 7
10 9 9 10 9 9 9 10 10 11 10 11 10 10 11 10 10 10 9 9 9 9 9 9 9 9 8 8 8 8 8 8 8 8 8 7 7 7 7 7 7 7 7 6 6 7 7 7 8
9 9 10 9 9 9 9 9 10 10 10 9 9 10 10 10 10 9 9 9 9 9 9 9 9 8 8 9 9 8 8 8 8 8 8 7 7 7 7 7 7 7 7 7 7 7 7 7 8
10 9 10 10 9 9 9 9 8 9 9 9 9 9 9 9 9 9 9 9 9 9 8 8 9 9 8 8 9 8 8 8 8 8 8 7 7 7 7 7 7 7 7 7 6 7 7 8 8
9 9 9 9 9 9 9 9 8 9 9 9 9 9 9 9 9 9 9 9 9 8 8 8 8 8 8 8 8 8 8 7 7 7 7 7 7 7 7 7 7 7 7 7 7 8 8 8 8
10 10 11 10 9 9 9 9 8 8 9 8 9 9 9 9 9 9 9 9 9 8 8 8 8 8 8 8 8 8 8 7 7 7 7 7 7 7 7 7 8 7 7 7 8 8 8 8 9
11 10 11 10 9 9 9 9 9 9 9 8 9 9 9 9 9 8 8 9 9 9 9 8 8 8 8 8 8 8 8 8 8 7 7 7 7 8 8 7 7 7 7 7 7 8 8 8 9
10 10 10 10 9 9 9 9 9 9 9 9 9 9 9 9 9 8 8 8 8 9 9 8 8 8 8 8 8 8 8 8 8 8 8 8 8 8 8 7 7 7 8 8 7 8 8 8 9
11 11 11 10 10 9 9 9 9 8 9 8 9 9 9 9 8 8 8 8 8 8 9 9 8 8 8 8 8 8 8 8 8 8 8 8 8 8 8 8 8 7 7 7 7 8 8 9 9
11 11 11 10 10 9 9 9 8 9 9 9 9 9 9 8 8 8 8 8 8 8 9 9 9 8 8 8 8 8 8 8 8 8 8 8 8 8 8 8 7 7 7 7 7 7 8 9 8
11 11 11 11 9 9 9 8 8 8 8 8 9 9 9 8 8 8 8 9 9 9 9 9 9 9 8 8 8 8 8 8 8 8 8 8 8 8 8 8 8 8 7 7 8 8 8 8 8
11 11 11 11 10 9 9 7 9 8 8 8 9 9 9 9 8 8 9 9 9 8 9 10 10 10 9 8 8 8 8 8 8 9 8 8 8 8 8 8 8 8 8 7 7 8 8 8 8
10 11 11 11 10 9 8 8 9 8 8 9 9 9 10 10 9 9 9 9 8 8 9 9 10 10 10 9 8 8 8 8 8 8 9 9 8 8 8 8 8 8 8 8 8 8 8 8 8
10 11 11 10 10 9 9 9 10 11 13 10 9 10 9 9 10 9 9 9 9 8 8 9 10 10 10 10 9 8 8 8 8 8 8 8 8 8 8 8 8 8 8 8 8 8 8 8 8
10 10 10 10 10 12 10 9 12 11 11 11 11 11 10 9 10 9 9 9 9 9 8 9 9 10 10 10 9 9 8 8 8 8 8 8 8 9 8 8 9 8 8 8 8 8 8 8 8
9 10 12 11 12 12 10 10 11 12 12 11 11 11 10 10 10 9 10 9 9 9 9 9 8 8 9 9 9 9 8 8 8 8 8 8 9 9 9 9 9 8 8 8 8 8 8 8 8
10 10 10 11 10 12 10 11 11 12 13 12 12 11 10 9 9 10 10 10 9 9 9 9 8 8 8 8 8 8 9 8 8 8 8 8 8 9 9 8 9 9 9 9 8 8 8 8 8
10 11 11 11 12 13 10 9 12 12 13 13 12 11 10 10 9 9 9 9 9 9 9 8 8 8 7 7 8 8 8 8 8 8 8 8 8 8 8 8 8 8 8 8 8 9 9 9 9
10 10 11 11 11 14 13 12 13 12 12 12 12 12 11 10 9 9 9 9 9 8 8 8 8 7 7 7 8 9 8 8 8 8 8 8 8 8 8 8 8 9 9 9 9 9 9 9 9
11 11 11 12 11 11 11 11 13 13 13 12 12 12 11 10 9 9 8 9 9 8 8 8 9 8 7 8 7 8 8 9 9 9 8 8 8 8 8 8 8 8 9 9 9 9 9 9 9
Height
3165 3165 3166 3167 3172 3169 3170 3173 3173 3174 3177 3179 3181 3185 3187 3187 3189 3194 3192 3195 3197 3200 3201 3202 3203 3205 3207 3208 3209 3210 3210 3210 3211 3211 3211 3212 3213 3213 3214 3214 3214 3214 3214 3214 3214 3214 3215 3215 3215
3165 3166 3167 3167 3170 3170 3172 3174 3175 3177 3179 3181 3184 3185 3187 3189 3189 3190 3194 3197 3199 3202 3203 3205 3205 3206 3208 3209 3210 3210 3211 3211 3212 3212 3213 3214 3214 3215 3216 3216 3216 3216 3216 3216 3216 3217 3217 3218 3218
3165 3166 3168 3168 3169 3171 3173 3175 3177 3179 3181 3183 3185 3187 3189 3190 3190 3194 3196 3200 3202 3203 3205 3206 3206 3208 3209 3209 3210 3211 3211 3212 3213 3213 3214 3215 3217 3216 3216 3218 3219 3219 3219 3219 3219 3219 3220 3220 3221
3166 3167 3169 3168 3169 3172 3174 3176 3178 3180 3184 3186 3187 3188 3190 3191 3193 3196 3199 3202 3204 3205 3206 3207 3208 3209 3210 3212 3211 3212 3212 3213 3213 3213 3215 3216 3216 3217 3218 3220 3221 3223 3222 3222 3222 3222 3223 3223 3224
3166 3167 3168 3168 3169 3172 3174 3177 3180 3181 3183 3186 3188 3189 3191 3193 3195 3198 3201 3203 3205 3207 3208 3209 3210 3211 3212 3213 3213 3214 3214 3214 3215 3216 3216 3218 3219 3221 3220 3222 3223 3223 3225 3224 3225 3225 3225 3226 3226
3166 3167 3168 3167 3170 3172 3174 3177 3180 3183 3185 3187 3189 3190 3192 3195 3198 3200 3203 3204 3206 3208 3209 3211 3212 3213 3213 3215 3214 3215 3216 3216 3217 3218 3218 3220 3222 3223 3224 3224 3226 3226 3226 3227 3227 3228 3228 3229 3229
3163 3160 3165 3166 3169 3171 3174 3178 3181 3183 3185 3187 3190 3192 3194 3196 3200 3202 3204 3205 3207 3209 3210 3211 3213 3213 3214 3215 3215 3216 3217 3217 3219 3219 3219 3222 3223 3223 3227 3228 3229 3229 3230 3230 3230 3230 3231 3232 3232
3165 3164 3163 3163 3166 3170 3174 3177 3180 3184 3186 3188 3191 3192 3194 3196 3200 3203 3205 3206 3208 3210 3211 3212 3213 3214 3215 3216 3216 3217 3218 3219 3220 3221 3221 3223 3225 3226 3228 3231 3231 3232 3232 3232 3233 3233 3234 3235 3235
3164 3164 3163 3162 3165 3169 3174 3177 3180 3183 3186 3186 3190 3194 3196 3198 3201 3205 3207 3207 3209 3211 3212 3213 3214 3215 3216 3217 3218 3218 3219 3221 3222 3222 3224 3226 3228 3229 3230 3232 3234 3234 3235 3235 3236 3236 3237 3237 3237
3164 3164 3163 3163 3165 3170 3175 3178 3181 3183 3184 3186 3189 3194 3196 3200 3204 3207 3210 3211 3211 3213 3213 3215 3216 3217 3218 3219 3219 3220 3221 3222 3224 3225 3227 3229 3230 3231 3232 3234 3235 3236 3237 3237 3238 3239 3239 3239 3239
3165 3165 3165 3167 3170 3172 3176 3179 3181 3183 3185 3188 3189 3193 3198 3201 3205 3208 3211 3213 3213 3214 3215 3216 3217 3218 3220 3221 3221 3222 3223 3225 3227 3228 3229 3231 3233 3234 3234 3236 3237 3238 3239 3240 3241 3241 3241 3242 3242
3167 3167 3168 3167 3168 3169 3176 3179 3182 3185 3187 3189 3193 3198 3200 3203 3207 3210 3213 3215 3215 3216 3216 3217 3218 3220 3222 3223 3223 3224 3225 3228 3229 3231 3232 3234 3235 3236 3237 3238 3239 3240 3241 3242 3243 3244 3244 3245 3245
3166 3166 3166 3162 3169 3174 3176 3180 3182 3185 3186 3188 3195 3200 3202 3204 3207 3210 3213 3216 3217 3218 3219 3219 3220 3222 3223 3225 3225 3226 3227 3229 3232 3233 3235 3236 3237 3238 3239 3240 3240 3242 3243 3245 3245 3246 3246 3247 3247
3165 3167 3166 3166 3170 3175 3176 3180 3182 3185 3187 3192 3197 3200 3203 3207 3210 3212 3214 3217 3218 3219 3220 3221 3222 3223 3225 3226 3228 3229 3230 3232 3234 3235 3237 3238 3239 3240 3241 3242 3243 3244 3245 3246 3246 3247 3248 3249 3250
3166 3168 3167 3169 3172 3174 3178 3180 3182 3186 3189 3194 3197 3202 3205 3208 3211 3213 3216 3218 3219 3220 3222 3223 3223 3225 3227 3228 3230 3231 3233 3234 3236 3238 3239 3240 3241 3241 3242 3243 3244 3245 3246 3246 3247 3249 3250 3251 3251
3166 3167 3169 3170 3171 3172 3175 3177 3177 3185 3191 3195 3198 3202 3206 3208 3211 3214 3216 3218 3220 3222 3223 3224 3226 3226 3228 3229 3231 3233 3234 3236 3238 3239 3240 3241 3242 3243 3243 3245 3246 3247 3248 3248 3249 3251 3251 3252 3254
3165 3166 3167 3170 3171 3172 3173 3173 3177 3184 3190 3194 3199 3203 3205 3208 3211 3214 3216 3219 3221 3222 3223 3226 3227 3228 3229 3231 3233 3234 3236 3238 3239 3240 3242 3243 3243 3244 3246 3247 3248 3249 3250 3250 3251 3252 3254 3254 3255
3163 3166 3167 3167 3171 3172 3176 3177 3180 3182 3188 3193 3198 3202 3205 3209 3212 3214 3217 3219 3221 3223 3224 3226 3228 3229 3230 3232 3234 3236 3237 3239 3241 3242 3243 3244 3244 3245 3247 3248 3249 3251 3252 3253 3254 3255 3256 3257 3257
3162 3164 3165 3167 3170 3173 3175 3177 3178 3176 3186 3192 3197 3201 3205 3210 3212 3214 3217 3220 3222 3223 3225 3226 3229 3231 3232 3233 3235 3237 3239 3240 3241 3242 3244 3245 3245 3246 3248 3250 3251 3252 3253 3254 3255 3256 3258 3259 3259
3162 3163 3165 3167 3169 3172 3173 3177 3178 3179 3186 3191 3196 3200 3205 3208 3211 3213 3216 3219 3222 3224 3225 3227 3229 3231 3233 3233 3235 3237 3239 3240 3242 3242 3243 3245 3246 3247 3249 3250 3252 3253 3254 3256 3257 3257 3259 3261 3261
3163 3164 3166 3168 3170 3173 3174 3178 3180 3181 3186 3190 3194 3199 3204 3207 3210 3213 3215 3219 3221 3223 3224 3226 3229 3231 3233 3234 3236 3238 3239 3241 3242 3243 3244 3245 3246 3248 3249 3251 3252 3254 3255 3257 3258 3259 3260 3261 3263
3163 3165 3167 3169 3171 3174 3177 3180 3181 3182 3183 3186 3191 3195 3200 3205 3209 3213 3216 3218 3220 3222 3224 3225 3228 3231 3232 3234 3236 3238 3240 3241 3242 3244 3245 3245 3246 3248 3250 3251 3253 3254 3255 3257 3259 3260 3261 3263 3264
3162 3166 3167 3169 3171 3174 3177 3179 3176 3176 3178 3181 3187 3191 3196 3201 3206 3210 3214 3218 3220 3221 3223 3225 3227 3230 3232 3234 3236 3238 3239 3241 3243 3244 3245 3246 3247 3249 3250 3251 3253 3254 3256 3257 3259 3261 3262 3264 3265
3161 3164 3167 3168 3171 3174 3172 3174 3171 3169 3169 3177 3184 3186 3192 3198 3203 3208 3213 3216 3219 3221 3222 3224 3226 3228 3231 3233 3235 3237 3239 3240 3242 3243 3244 3246 3247 3248 3249 3250 3252 3254 3256 3257 3259 3260 3262 3263 3265
3160 3162 3166 3170 3170 3167 3168 3173 3167 3167 3169 3173 3177 3182 3186 3194 3199 3204 3208 3213 3217 3219 3222 3223 3225 3227 3229 3232 3235 3236 3238 3241 3242 3243 3244 3246 3247 3247 3248 3250 3251 3252 3254 3256 3258 3259 3261 3262 3264
3156 3161 3159 3161 3162 3163 3165 3167 3163 3163 3166 3168 3175 3181 3183 3189 3196 3201 3206 3211 3215 3217 3221 3223 3224 3227 3228 3230 3233 3235 3237 3239 3241 3242 3244 3244 3246 3247 3248 3249 3250 3251 3252 3254 3256 3258 3259 3260 3262
3153 3154 3160 3159 3158 3158 3160 3161 3160 3160 3162 3165 3168 3173 3179 3184 3191 3197 3203 3208 3212 3215 3219 3221 3223 3225 3227 3228 3230 3232 3234 3236 3238 3241 3243 3244 3245 3246 3247 3249 3250 3251 3251 3252 3253 3255 3257 3259 3260
3150 3155 3157 3157 3157 3154 3156 3156 3156 3157 3160 3163 3165 3169 3174 3180 3187 3192 3198 3203 3208 3212 3216 3219 3221 3222 3225 3226 3228 3229 3231 3233 3235 3238 3240 3242 3243 3244 3246 3248 3249 3250 3250 3250 3252 3254 3254 3256 3257
3146 3147 3150 3154 3153 3149 3153 3154 3154 3155 3158 3162 3164 3167 3172 3177 3184 3190 3195 3199 3203 3206 3211 3213 3216 3219 3222 3224 3225 3227 3228 3231 3233 3234 3236 3238 3241 3242 3244 3245 3246 3248 3249 3250 3251 3253 3254 3254 3255
3140 3144 3146 3147 3151 3150 3150 3151 3150 3153 3155 3158 3162 3165 3170 3175 3181 3187 3191 3196 3199 3201 3205 3208 3211 3214 3217 3219 3222 3224 3225 3227 3230 3232 3234 3235 3238 3240 3242 3242 3245 3246 3247 3248 3249 3251 3253 3253 3254
Wind_Speed
2 2 1 3 3 6 9 7 13 21 22 16 21 23 11 10 8 8 24 20 18 16 14 12 13 10 9 9 7 7 7 7 6 8 9 9 11 12 12 13 15 16 17 18 17 16 16 16 16
3 2 2 2 5 8 8 11 16 20 19 22 16 16 9 9 6 21 21 20 18 15 12 11 10 10 7 6 5 6 7 8 9 9 10 11 12 11 12 12 14 16 17 18 17 16 15 15 15
4 5 4 5 6 7 9 15 21 20 19 16 15 13 11 5 18 20 20 18 17 14 12 10 10 8 6 5 5 6 8 8 8 9 10 12 12 11 12 12 15 15 16 16 16 16 16 15 15
3 4 6 7 9 6 11 18 21 19 17 10 11 11 7 9 21 20 20 18 15 13 10 8 9 8 8 8 6 8 7 7 8 9 11 12 13 12 12 12 14 15 15 14 15 15 14 14 14
4 6 3 7 12 8 12 21 18 19 17 13 10 5 8 21 21 20 20 17 15 12 10 10 10 10 9 7 7 7 7 8 8 9 12 12 12 12 13 15 15 15 14 12 13 14 14 14 13
5 5 4 11 16 12 17 21 22 17 12 11 7 7 19 21 20 20 20 18 16 11 11 10 9 9 8 8 7 7 7 6 7 9 10 13 12 14 16 17 16 15 12 12 12 14 14 13 13
6 6 3 9 19 17 20 21 22 15 12 13 11 14 21 21 20 21 20 18 15 13 11 9 8 8 8 8 7 8 7 7 9 10 11 12 16 14 14 15 14 12 12 12 12 13 13 11 11
2 5 3 8 22 24 23 22 20 16 15 12 13 18 20 24 21 20 19 17 15 12 10 9 9 8 7 7 7 6 7 8 11 10 11 13 15 16 13 11 12 11 11 12 12 13 12 11 11
3 2 3 15 27 26 24 22 19 17 17 17 17 18 20 21 21 18 18 17 13 10 9 10 9 8 10 9 8 6 7 10 14 13 15 15 14 14 14 13 11 10 10 11 12 12 13 12 11
1 5 2 16 25 26 23 19 18 17 16 17 19 21 26 21 18 16 14 14 13 11 10 10 9 11 12 11 10 9 10 14 15 15 17 16 14 14 12 12 11 11 11 11 13 13 12 13 14
4 8 10 21 24 20 21 20 19 16 16 12 20 24 25 22 19 17 13 12 12 13 11 9 10 13 14 13 10 13 14 17 17 17 17 16 13 11 11 12 11 11 12 15 12 11 12 14 14
6 7 11 13 17 25 21 20 19 15 11 14 17 22 22 22 20 17 12 10 11 13 12 9 11 13 14 11 11 15 18 18 19 18 17 14 12 10 14 14 12 12 12 14 12 10 11 12 12
7 5 6 8 25 23 18 20 21 13 20 23 27 21 21 22 22 18 14 11 11 12 11 11 11 13 12 13 13 17 19 19 18 17 15 13 11 11 13 10 13 13 16 14 10 10 12 12 11
9 7 7 16 21 20 19 21 17 18 23 25 22 21 25 24 19 19 14 11 10 12 11 11 12 12 12 15 14 18 18 17 15 13 12 10 10 8 9 10 11 12 13 11 11 11 11 10 10
8 7 9 6 14 21 19 20 22 24 26 26 25 24 27 22 20 18 13 11 11 12 10 9 13 12 14 15 15 18 17 15 13 11 12 12 10 10 8 9 10 10 10 11 12 10 10 9 9
12 10 7 10 15 13 24 23 28 27 30 29 25 25 26 21 20 18 15 14 13 11 9 11 13 12 12 15 15 16 14 13 12 13 9 11 9 9 11 12 12 10 9 10 10 10 10 9 9
12 7 10 13 10 6 20 7 13 31 34 31 28 24 26 24 23 19 19 18 14 10 11 11 11 9 11 12 13 13 14 12 13 12 12 12 11 11 10 12 10 8 8 9 10 10 10 11 12
14 10 10 14 12 6 10 5 14 31 31 36 32 27 25 23 21 19 16 15 14 11 8 9 8 6 10 13 12 12 13 13 12 13 11 10 11 9 9 10 8 7 7 9 11 10 9 11 13
12 8 8 12 13 9 12 4 4 26 44 35 33 28 26 23 21 19 18 13 10 9 8 6 8 8 9 10 10 9 10 13 12 10 10 9 9 9 9 8 7 7 7 6 5 7 9 12 14
11 11 9 11 9 12 4 3 5 23 38 35 33 31 26 24 21 19 18 11 9 6 8 7 9 10 8 9 9 9 7 11 13 11 9 8 6 6 9 8 6 7 7 5 3 5 9 12 14
12 8 9 8 15 15 12 6 13 24 37 34 33 30 27 23 21 20 14 11 9 6 10 10 10 10 10 8 7 9 10 10 9 9 11 9 6 6 8 9 8 8 9 7 5 7 11 12 12
18 9 7 12 18 6 11 3 5 22 27 32 35 31 31 25 21 16 16 12 11 7 10 12 12 11 10 9 8 8 8 8 8 7 8 9 8 7 8 8 8 9 9 8 6 8 10 11 12
9 10 6 8 12 8 19 7 17 19 35 37 29 36 32 29 25 21 16 11 11 8 8 12 13 11 10 10 10 8 8 7 3 4 5 5 5 7 8 8 9 9 9 9 7 9 8 10 10
12 19 11 8 9 4 13 14 12 28 25 35 35 19 34 30 29 23 18 17 13 12 10 10 12 12 12 10 9 9 7 7 5 4 5 5 5 4 6 7 8 7 9 10 10 10 10 10 9
18 23 8 3 4 4 3 14 11 14 21 26 30 26 32 35 31 24 26 21 17 11 6 8 9 11 11 11 9 10 11 6 7 7 6 5 4 4 4 6 9 9 6 6 10 11 12 11 11
20 20 11 7 6 6 5 10 7 15 16 16 29 41 27 33 32 28 26 23 19 16 11 9 11 8 8 11 12 12 11 10 7 10 8 7 5 4 3 5 7 9 7 8 8 10 11 13 12
23 23 16 3 4 6 7 9 7 11 15 16 26 31 40 36 38 31 26 24 22 20 17 14 11 9 7 8 13 14 14 13 10 12 11 8 7 6 4 5 6 6 5 7 9 10 12 12 13
17 23 19 15 8 7 5 5 7 18 18 15 23 32 31 35 38 33 31 28 28 25 21 20 19 14 14 12 11 15 16 17 16 16 13 12 11 10 9 8 7 6 5 5 6 8 9 12 14
24 14 20 19 8 10 6 6 18 15 20 18 18 26 27 30 38 35 28 31 26 33 29 27 25 22 19 18 14 16 18 19 19 20 16 14 13 13 12 10 11 8 7 6 6 7 7 8 9
20 19 21 19 14 8 5 4 15 18 15 20 22 21 26 25 31 36 34 33 30 27 31 34 34 30 28 19 21 19 21 22 22 22 20 17 16 14 16 13 12 11 10 9 9 9 8 8 8
Wind_Direction
121 160 140 115 95 107 93 103 134 133 134 130 137 134 123 131 120 147 149 145 141 137 133 137 130 127 122 114 105 95 95 94 100 115 117 110 101 98 95 92 95 97 100 102 102 100 97 93 90
122 116 140 119 104 116 102 119 136 128 131 133 139 148 121 111 128 143 143 142 137 132 134 135 135 136 127 119 111 104 103 111 114 113 113 120 112 107 107 101 102 100 97 100 101 98 95 93 93
126 132 144 132 110 107 125 137 140 142 142 124 123 128 138 91 135 140 139 137 133 134 132 124 115 117 120 108 96 99 107 105 108 112 116 120 117 120 120 108 107 106 104 96 95 96 98 92 91
162 180 141 156 136 101 142 148 154 152 156 127 131 117 160 135 139 139 139 138 134 130 128 123 118 121 122 121 117 110 112 108 117 119 123 124 125 129 117 114 116 109 104 101 99 106 103 100 98
172 158 160 172 135 132 150 158 174 163 150 150 149 115 135 140 140 140 140 138 133 130 128 126 123 126 126 123 115 116 115 112 115 116 126 121 126 128 124 120 113 110 109 104 101 104 102 101 101
221 199 187 173 164 151 155 167 174 187 182 183 164 147 142 140 144 142 142 141 135 136 133 130 127 133 136 129 125 123 125 118 119 124 123 131 138 125 124 118 113 110 108 104 102 105 104 104 104
299 201 240 205 195 159 162 170 180 190 187 192 187 173 153 146 148 147 146 144 140 141 139 128 125 133 135 132 130 127 125 119 113 127 126 137 136 135 128 120 111 104 104 101 105 107 107 104 104
3 166 207 205 182 175 166 171 182 195 205 196 195 189 166 153 154 154 151 144 142 142 134 127 127 132 132 135 133 130 131 124 126 126 148 137 144 138 133 126 116 107 112 107 107 106 102 99 100
318 177 127 168 174 163 171 177 175 199 213 195 185 188 171 159 156 157 154 146 141 135 129 124 127 135 138 127 122 124 130 125 133 127 129 130 132 133 131 145 125 119 120 121 118 104 97 93 100
172 145 143 145 167 172 175 179 188 191 202 189 186 181 168 156 152 150 149 142 136 130 125 125 126 130 127 123 114 111 127 128 129 124 123 123 117 116 128 140 131 129 132 126 119 104 99 94 101
68 162 129 149 168 183 181 178 188 183 168 164 173 176 163 152 148 146 148 147 142 128 125 127 127 129 123 121 110 115 122 125 126 131 125 121 115 101 109 121 124 126 130 131 121 107 96 99 104
95 176 188 182 170 177 177 178 173 164 161 168 180 171 160 150 144 141 142 141 138 132 128 123 131 126 117 112 114 118 129 132 126 129 131 125 112 101 124 111 121 112 125 135 136 116 110 113 114
91 105 158 193 172 173 175 182 163 154 140 139 162 165 157 153 142 141 133 138 131 134 129 127 135 132 123 116 115 120 135 138 135 133 134 132 119 115 130 106 101 117 120 132 142 138 125 127 125
131 82 94 158 175 179 187 167 182 152 136 151 157 158 152 145 139 132 121 123 122 130 128 127 144 141 130 121 121 123 135 140 140 141 138 140 134 126 121 107 111 112 121 116 131 131 127 120 123
144 116 103 137 170 182 179 182 169 167 148 149 152 157 151 141 133 130 124 114 121 133 115 133 143 138 133 124 128 130 133 140 142 143 127 114 123 140 134 117 116 110 112 107 113 123 119 118 127
177 166 157 150 184 197 194 189 179 171 160 153 152 156 160 141 140 130 119 117 109 110 120 123 136 137 135 130 134 142 142 145 145 139 125 133 117 126 124 127 100 98 90 108 121 128 123 122 134
187 187 167 157 189 194 195 166 195 166 172 160 157 152 158 150 143 126 120 113 106 104 110 127 136 137 145 146 141 140 141 150 153 149 138 128 124 125 124 131 118 100 101 116 123 139 131 134 140
182 155 169 186 197 175 172 229 181 177 182 166 164 160 157 155 140 141 132 125 110 95 113 140 145 144 141 150 142 144 144 147 150 158 154 141 137 136 128 134 120 128 99 121 136 144 140 139 138
192 190 182 177 180 194 191 296 217 173 167 169 168 169 170 160 152 150 150 139 122 105 121 132 154 155 143 137 147 153 156 158 156 153 156 154 143 154 148 141 130 126 126 118 122 136 149 145 135
166 184 172 176 188 219 113 30 205 175 173 180 177 182 176 172 182 169 166 155 137 127 141 140 161 165 172 158 160 159 179 167 153 152 162 171 167 159 165 163 148 148 156 150 161 139 153 152 143
173 146 158 183 161 149 151 24 192 183 179 185 187 187 187 195 189 181 181 165 155 154 156 154 167 173 173 169 163 161 148 151 148 152 156 160 171 166 172 171 172 173 169 163 128 150 154 153 154
197 165 154 158 142 147 171 198 209 207 194 192 193 195 187 193 194 199 176 163 151 158 167 165 170 173 176 175 176 170 175 169 157 162 168 163 170 182 190 189 190 186 182 175 176 152 160 162 164
204 199 204 162 187 158 177 161 209 202 209 200 195 201 194 196 194 180 184 166 150 166 171 170 170 176 170 176 182 188 187 181 197 187 159 144 160 178 190 194 196 194 194 195 191 181 168 174 179
208 186 171 171 187 228 216 206 216 206 212 212 199 203 204 193 183 187 193 200 166 174 181 168 171 177 174 173 179 182 188 175 190 194 175 168 166 174 187 184 193 198 206 207 201 200 198 200 197
197 181 162 183 195 229 198 205 234 209 227 216 205 199 200 197 189 195 196 196 182 167 177 157 154 173 174 174 179 183 193 187 217 200 192 182 180 176 183 193 197 187 189 205 212 209 211 205 213
178 191 195 197 193 201 166 213 238 239 241 220 213 210 213 201 195 191 199 203 193 183 188 158 145 131 161 185 188 190 195 218 237 202 199 192 191 187 173 185 187 190 204 212 212 217 221 217 224
207 220 213 165 199 198 186 222 232 221 222 211 204 204 216 216 202 196 198 206 202 201 197 191 192 187 169 188 199 201 200 210 214 211 212 196 199 198 199 196 188 187 185 198 204 212 228 235 236
211 212 211 222 206 229 207 233 190 206 204 203 202 202 204 212 207 208 204 214 211 213 211 211 208 204 206 208 208 214 211 206 204 205 216 223 210 201 206 212 217 220 210 199 207 215 225 235 242
208 221 212 213 218 217 203 228 195 208 217 215 209 205 209 211 214 216 215 220 216 219 218 226 217 224 226 221 225 220 220 220 213 209 220 213 215 204 208 217 226 226 224 220 225 230 227 228 232
211 214 206 216 210 220 234 215 193 209 216 223 218 215 208 205 219 223 224 230 235 236 230 228 227 230 230 230 227 234 225 224 223 218 213 217 217 218 218 221 220 211 227 230 238 238 240 241 239